User: anonymous   Login
Location: Clatteringshaws Loch
(55.0508°N, 4.2860°W)
Time: 00:24:05
(UTC+01:00)
Language:

Sapphire - Orbit

View from above orbital plane
View from above orbital plane
View from above satellite
View from above satellite

Ground track
Ground track

The orbit data is extracted from the following two-line orbital elements,

1 26932U 01043D   18109.78112255 -.00000043  00000-0  15338-4 0  9992
2 26932  67.0580  22.8905 0005787 293.7163  66.3331 14.30277459864219
Epoch (UTC): 19 April 2018 18:44:48
Eccentricity: 0.0005787
inclination: 67.0580°
perigee height: 786 km
apogee height: 795 km
right ascension of ascending node: 22.8905°
argument of perigee: 293.7163°
revolutions per day: 14.30277459
mean anomaly at epoch: 66.3331°
orbit number at epoch: 86421

The dashed part of the orbit path shows where the satellite is in the earth's shadow,  

DLR